{"data":{"norad_id":52484,"intl_designator":"2022-049AK","name":"STARLINK-3887","alt_names":[],"object_type":"PAYLOAD","status":"ACTIVE","operator":null,"country":"US","launch_date":"2022-05-06","launch_site_code":"AFETR","launch_vehicle":null,"mission":null,"orbit_class":"UNKNOWN","rcs_meters":null,"size_class":null,"mass_kg":null,"dimensions":null,"purposes":["comms"],"wikipedia_slug":null,"has_3d_model":false,"image_url":null,"decayed_at":null,"tle_current":{"epoch":"2026-09-19T12:55:18.496128Z","epoch_age_seconds":146383,"freshness":"FRESH","line1":"1 52484U 22049AK  26262.53840852  .00000279  00000+0  18919-4 0  9992","line2":"2 52484  53.1591 258.0335 0001294  96.9207 263.1943 15.35401837241668","mean_motion":15.35401837,"eccentricity":0.0001294,"inclination_deg":53.1591,"raan_deg":258.0335,"arg_perigee_deg":96.9207,"mean_anomaly_deg":263.1943,"bstar":1.8919e-5,"rev_number":24166,"period_min":93.786523195361,"perigee_km":458.84236909483,"apogee_km":460.61200834687,"semimajor_km":6837.8641887209,"source":"CELESTRAK","updated_at":"2026-09-20T09:00:40.053924Z"}}}